Omaha, NE

8:47 AM CST on February 06, 2016 (GMT -0600)
Millard Municipal

Weather History for KMLE - September, 2013

Change the Weather History Date:

Thursday, September 12, 2013

  Actual Average (KOMA) Record (KOMA)
Temperature  
Mean Temperature 70 °F 67 °F  
Max Temperature 79 °F 79 °F 96 °F (1939)
Min Temperature 61 °F 56 °F 37 °F (1975)
Degree Days  
Heating Degree Days 0 2  
Month to date heating degree days 16  
Since 1 July heating degree days 24  
Cooling Degree Days 6 4  
Month to date cooling degree days 69  
Year to date cooling degree days 1049  
Growing Degree Days 20 (Base 50)    
Moisture  
Dew Point 56 °F    
Average Humidity 59    
Maximum Humidity 92    
Minimum Humidity 34    
Precipitation  
Precipitation 0.00 in 0.09 in 2.21 in (1974)
Month to date precipitation 1.18  
Year to date precipitation 24.29  
Snow  
Snow 0.00 in 0.00 in - ()
Month to date snowfall 0.0  
Since 1 July snowfall 0.0  
Snow Depth -    
Sea Level Pressure  
Sea Level Pressure 30.18 in    
Wind  
Wind Speed 2 mph (NNE)    
Max Wind Speed 10 mph    
Max Gust Speed -    
Visibility 10 miles    
Events      
T = Trace of Precipitation, MM = Missing Value Source: NWS Daily Summary

Daily Weather History Graph

Daily Weather History Graph

Search for Another Location

Airport or City:

Trip Planner

Search our weather history database for the weather conditions in past years. The results will help you decide how hot, cold, wet, or windy it might be!

Date:

Astronomy

Sep. 12, 2013 Rise Set
Actual Time 7:02 AM CDT 7:38 PM CDT
Civil Twilight 6:34 AM CDT 8:06 PM CDT
Nautical Twilight 6:01 AM CDT 8:38 PM CDT
Astronomical Twilight 5:27 AM CDT 9:12 PM CDT
Moon 2:34 PM CDT (9/12) No Moon Set
Length of Visible Light 13h 31m
Length of Day
12h 36m
Waxing Crescent, 50% of the Moon is Illuminated
Sep 12
Waxing Crescent
Sep 12
First Quarter
Sep 19
Full
Sep 26
Last Quarter
Oct 4
New

Hourly Weather History & Observations

Time (CDT) Temp. Dew Point Humidity Pressure Visibility Wind Dir Wind Speed Gust Speed Precip Events Conditions
12:15 AM 72.7 °F 68.5 °F 87% 30.12 in 10.0 mi Calm Calm - N/A   Mostly Cloudy
12:35 AM 74.1 °F 67.5 °F 80% 30.12 in 10.0 mi SW 4.6 mph - N/A   Overcast
12:55 AM 73.4 °F 67.6 °F 82% 30.12 in 10.0 mi Calm Calm - N/A   Overcast
1:15 AM 72.9 °F 69.1 °F 88% 30.12 in 10.0 mi Calm Calm - N/A   Overcast
1:35 AM 72.9 °F 69.1 °F 88% 30.12 in 10.0 mi Calm Calm - N/A   Overcast
1:55 AM 72.9 °F 68.7 °F 87% 30.13 in 10.0 mi Calm Calm - N/A   Overcast
2:15 AM 73.0 °F 68.2 °F 85% 30.14 in 10.0 mi Calm Calm - N/A   Overcast
2:35 AM 72.9 °F 68.0 °F 85% 30.14 in 10.0 mi Calm Calm - N/A   Overcast
2:55 AM 72.7 °F 68.0 °F 85% 30.14 in 10.0 mi Calm Calm - N/A   Overcast
3:15 AM 72.1 °F 68.0 °F 87% 30.14 in 10.0 mi WNW 3.5 mph - N/A   Overcast
3:35 AM 72.5 °F 68.0 °F 86% 30.14 in 10.0 mi Calm Calm - N/A   Overcast
3:55 AM 71.8 °F 68.0 °F 88% 30.13 in 10.0 mi Calm Calm - N/A   Mostly Cloudy
4:15 AM 71.1 °F 67.8 °F 89% 30.13 in 10.0 mi Calm Calm - N/A   Scattered Clouds
4:35 AM 70.2 °F 67.6 °F 92% 30.13 in 10.0 mi Calm Calm - N/A   Clear
4:55 AM 70.7 °F 67.6 °F 90% 30.15 in 10.0 mi NNW 3.5 mph - N/A   Clear
5:15 AM 70.7 °F 67.3 °F 89% 30.15 in 10.0 mi North 3.5 mph - N/A   Clear
5:35 AM 70.2 °F 66.7 °F 89% 30.15 in 10.0 mi NNW 4.6 mph - N/A   Clear
5:55 AM 69.4 °F 65.8 °F 88% 30.15 in 10.0 mi Calm Calm - N/A   Clear
6:15 AM 69.4 °F 64.9 °F 86% 30.15 in 10.0 mi Calm Calm - N/A   Clear
6:35 AM 69.3 °F 62.2 °F 78% 30.16 in 10.0 mi Calm Calm - N/A   Clear
6:55 AM 68.9 °F 59.9 °F 73% 30.16 in 10.0 mi Calm Calm - N/A   Clear
7:15 AM 68.9 °F 57.7 °F 68% 30.17 in 10.0 mi Calm Calm - N/A   Clear
7:35 AM 68.2 °F 57.6 °F 69% 30.18 in 10.0 mi Calm Calm - N/A   Clear
7:55 AM 68.2 °F 57.2 °F 68% 30.18 in 10.0 mi Calm Calm - N/A   Clear
8:15 AM 68.7 °F 57.0 °F 66% 30.19 in 10.0 mi Calm Calm - N/A   Clear
8:35 AM 68.9 °F 55.4 °F 62% 30.20 in 10.0 mi NNE 3.5 mph - N/A   Clear
8:55 AM 69.3 °F 54.0 °F 58% 30.20 in 10.0 mi NE 6.9 mph - N/A   Clear
9:15 AM 70.3 °F 53.4 °F 55% 30.20 in 10.0 mi NNE 5.8 mph - N/A   Clear
9:35 AM 71.6 °F 53.2 °F 52% 30.21 in 10.0 mi NE 6.9 mph - N/A   Clear
9:55 AM 72.5 °F 53.2 °F 51% 30.22 in 10.0 mi NE 4.6 mph - N/A   Clear
10:15 AM 72.9 °F 53.2 °F 50% 30.22 in 10.0 mi NE 4.6 mph - N/A   Clear
10:35 AM 73.0 °F 53.2 °F 50% 30.23 in 10.0 mi NE 4.6 mph - N/A   Clear
10:55 AM 74.3 °F 54.5 °F 50% 30.23 in 10.0 mi NNE 3.5 mph - N/A   Clear
11:15 AM 74.3 °F 54.1 °F 49% 30.23 in 10.0 mi East 6.9 mph - N/A   Clear
11:35 AM 74.7 °F 54.3 °F 49% 30.23 in 10.0 mi NNE 4.6 mph - N/A   Clear
11:55 AM 75.6 °F 53.1 °F 45% 30.23 in 10.0 mi NNE 4.6 mph - N/A   Clear
12:15 PM 76.1 °F 50.7 °F 41% 30.23 in 10.0 mi NNE 9.2 mph - N/A   Clear
12:35 PM 76.1 °F 52.7 °F 44% 30.23 in 10.0 mi ENE 8.1 mph - N/A   Clear
12:55 PM 76.5 °F 52.5 °F 43% 30.23 in 10.0 mi NE 6.9 mph - N/A   Clear
1:15 PM 76.6 °F 53.1 °F 44% 30.22 in 10.0 mi NE 6.9 mph - N/A   Clear
1:35 PM 77.4 °F 50.0 °F 38% 30.22 in 10.0 mi NNE 6.9 mph - N/A   Clear
1:55 PM 77.7 °F 48.9 °F 36% 30.21 in 10.0 mi NNE 4.6 mph - N/A   Clear
2:15 PM 77.9 °F 50.9 °F 39% 30.21 in 10.0 mi NNE 4.6 mph - N/A   Clear
2:35 PM 77.9 °F 50.0 °F 38% 30.20 in 10.0 mi NE 4.6 mph - N/A   Clear
2:55 PM 78.3 °F 50.2 °F 37% 30.19 in 10.0 mi NE 10.4 mph - N/A   Clear
3:15 PM 78.8 °F 50.2 °F 37% 30.19 in 10.0 mi North 8.1 mph - N/A   Clear
3:35 PM 79.0 °F 48.4 °F 34% 30.18 in 10.0 mi NNE 3.5 mph - N/A   Clear
3:55 PM 78.8 °F 48.6 °F 34% 30.18 in 10.0 mi North 9.2 mph - N/A   Clear
4:15 PM 78.8 °F 48.7 °F 35% 30.18 in 10.0 mi NNE 6.9 mph - N/A   Clear
4:35 PM 78.1 °F 48.6 °F 35% 30.17 in 10.0 mi NNE 3.5 mph - N/A   Clear
4:55 PM 78.6 °F 49.3 °F 36% 30.17 in 10.0 mi NNW 5.8 mph - N/A   Clear
5:15 PM 78.3 °F 48.2 °F 35% 30.17 in 10.0 mi North 6.9 mph - N/A   Clear
5:35 PM 78.3 °F 47.5 °F 34% 30.17 in 10.0 mi Calm Calm - N/A   Clear
5:55 PM 77.7 °F 47.8 °F 35% 30.17 in 10.0 mi NNE 3.5 mph - N/A   Clear
6:15 PM 77.2 °F 47.5 °F 35% 30.18 in 10.0 mi NNW 6.9 mph - N/A   Clear
6:35 PM 76.1 °F 47.8 °F 37% 30.18 in 10.0 mi North 3.5 mph - N/A   Clear
6:55 PM 76.1 °F 48.6 °F 38% 30.18 in 10.0 mi North 4.6 mph - N/A   Clear
7:15 PM 74.7 °F 48.6 °F 40% 30.18 in 10.0 mi North 4.6 mph - N/A   Clear
7:35 PM 73.9 °F 48.4 °F 40% 30.18 in 10.0 mi NNW 3.5 mph - N/A   Clear
7:55 PM 72.9 °F 48.7 °F 42% 30.18 in 10.0 mi North 3.5 mph - N/A   Clear
8:15 PM 72.1 °F 49.1 °F 44% 30.18 in 10.0 mi Calm Calm - N/A   Clear
8:35 PM 70.7 °F 49.8 °F 48% 30.19 in 10.0 mi Calm Calm - N/A   Clear
8:55 PM 69.3 °F 50.9 °F 52% 30.20 in 10.0 mi Calm Calm - N/A   Clear
9:15 PM 68.2 °F 51.6 °F 55% 30.20 in 10.0 mi Calm Calm - N/A   Clear
9:35 PM 67.6 °F 51.8 °F 57% 30.20 in 10.0 mi Calm Calm - N/A   Clear
9:55 PM 68.0 °F 51.6 °F 56% 30.20 in 10.0 mi Calm Calm - N/A   Clear
10:15 PM 67.8 °F 51.3 °F 55% 30.20 in 10.0 mi Calm Calm - N/A   Clear
10:35 PM 66.6 °F 51.6 °F 59% 30.20 in 10.0 mi Calm Calm - N/A   Clear
10:55 PM 65.8 °F 51.8 °F 60% 30.20 in 10.0 mi Calm Calm - N/A   Clear
11:15 PM 63.9 °F 52.2 °F 66% 30.21 in 10.0 mi Calm Calm - N/A   Clear
11:35 PM 62.6 °F 54.0 °F 73% 30.21 in 10.0 mi Calm Calm - N/A   Clear
11:55 PM 61.2 °F 54.1 °F 78% 30.21 in 10.0 mi Calm Calm - N/A   Clear